Details From KLGA - La Guardia
To MDPC - Punta Cana Intl
Flight Number -
Tags Generated
Created
Modified
Stats Distance 1,364 nm / 2,527 km
Max Altitude 0 ft / 0 m
Waypoints 4
Social Downloads 1
Likes 0
Share VATSIM

Download

Looking for another format? Having issues loading an existing format? Contact us
Advertisement - Login to hide

Notes

Generated

Route

KLGA ZIBUT PNA MDPC

ID Type Via Altitude Latitude Longitude Leg Dist Tot Dist Heading (true) Name
O KLGA APT - 0 ft / 0 m 40.78229˚ -73.87852˚ - 0 nm - -
ZIBUT FIX - 0 ft / 0 m 36.93841˚ -72.66617˚ 237 nm 237 nm 166° / 167° -
PNA VOR - 0 ft / 0 m 18.56725˚ -68.38331˚ 1126 nm 1363 nm 167° / 169° PUNTA CANA VOR-DME
O MDPC APT - 0 ft / 0 m 18.56610˚ -68.37806˚ 0 nm 1364 nm 103° / 103° -

Altitude Profile

Advertisement - Login to hide

Weather


0- 5 10 15 20 25 30 35+ Temperature / ° C

Clouds and Precipitation
Forecast for 2018-05-23 18:00 UTC. Updated 2 hours ago

Ground ~20,000 ft ~40,000 ft Winds

KLGA

Details ICAO KLGA (LGA)
Name La Guardia
Region United States
Timezone America/New_York (UTC-4.0)
Stats Elevation 22 ft / 7 m (AMSL)
Location 40.777236° -73.872610°
Runways 2
Magnetic Variation 12.968° W

METAR

KLGA 231851Z 35009KT 10SM FEW030 FEW050 SCT250 26/12 A2993 RMK AO2 SLP136 T02560122

Decode

TAF

KLGA 231946Z 2320/2424 35012G17KT P6SM SCT250 FM232300 32010KT P6SM FEW250 FM240300 32006KT P6SM SKC FM241200 35008KT P6SM SKC FM242000 VRB05KT P6SM SKC FM242100 19008KT P6SM SKC

Decode

Departure Runways

ID Width Length Bearing (true) Bearing (mag) Surface Threshold Offset Overrun Length
04 151 ft / 46 m 7,002 ft / 2,134 m 32.04° 45.01° Asphalt 0 ft / 0 m 312 ft / 95 m
13 151 ft / 46 m 6,990 ft / 2,130 m 122.24° 135.21° Asphalt 0 ft / 0 m 98 ft / 30 m
22 151 ft / 46 m 7,002 ft / 2,134 m 212.05° 225.02° Asphalt 0 ft / 0 m 92 ft / 28 m
31 151 ft / 46 m 6,990 ft / 2,130 m 302.26° 315.23° Asphalt 0 ft / 0 m 361 ft / 110 m

MDPC

Details ICAO MDPC (PUJ)
Name Punta Cana Intl
Region Dominican Republic
Timezone America/Santo_Domingo (UTC-4.0)
Stats Elevation 46 ft / 14 m (AMSL)
Location 18.570574° -68.366130°
Runways 2
Magnetic Variation 12.206° W

METAR

MDPC 231900Z 12010KT 9999 FEW022 BKN300 28/23 Q1017

Decode

TAF

Not found

Destination Runways

ID Width Length Bearing (true) Bearing (mag) Surface Threshold Offset Overrun Length
08 148 ft / 45 m 10,110 ft / 3,082 m 74.20° 86.41° Asphalt 0 ft / 0 m 374 ft / 114 m
09 148 ft / 45 m 10,163 ft / 3,098 m 84.79° 97.00° Asphalt 0 ft / 0 m 374 ft / 114 m
26 148 ft / 45 m 10,110 ft / 3,082 m 254.21° 266.42° Asphalt 0 ft / 0 m 374 ft / 114 m
27 148 ft / 45 m 10,163 ft / 3,098 m 264.80° 277.01° Asphalt 0 ft / 0 m 374 ft / 114 m

Popular Alternatives